OKEAN-O

Last updated on Mon Sep 21 2026 00:02:09 GMT+0000 (Coordinated Universal Time)

1 25860U 99039A 26263.16960674 .00000297 00000+0 45520-4 0 9996 2 25860 97.9216 320.8305 0001918 84.8940 275.2491 14.80556373463162
UTC large
Height (km)
Speed (km/s)
/
Latitude / Longitude
Inclination (degrees)
Orbital Period (minutes)
Azimuth
Elevation
Range (km)
Doppler Factor

Next 0 passes for location: London (51.5072 / 0.1276)

No passes found over London.
OKEAN-O